Location: Aubrey
(33.1990°N, 85.1361°W)
Time: 18:18:19
(UTC+00:00)

Envisat - Pass Details

Date: 18 September 2021
Orbit: 764 x 766 km, 98.2° (Epoch: 18 October)

Event Time Altitude Azimuth Distance (km) Brightness Sun altitude
Rises 10:01:42 0° 25° (NNE) 3,234 6.8 -18.3°
Reaches altitude 10° 10:04:18 10° 37° (NE) 2,303 6.2 -17.8°
Maximum altitude 10:08:41 29° 97° (E) 1,366 5.0 -16.9°
Drops below altitude 10° 10:13:03 10° 157° (SSE) 2,290 5.6 -16.0°
Sets 10:15:37 0° 168° (SSE) 3,212 6.2 -15.5°
